Simultaneous Nadir Overpasses (SNOs) Predictions

Prediction of SNOs between LANDSAT-8 and NOAA-19 Satellite Orbit:

Table of predicted SNOs for the next 14.0 days since TLE Epoch: 11/6/2015
Index Date (LANDSAT-8) Time (LANDSAT-8) Lat,Lon (LANDSAT-8) SZA (LANDSAT-8 ) Date (NOAA-19) Time (NOAA-19) Lat,Lon (NOAA-19) SZA (NOAA-19 ) Distance(km) Time Diff (sec)
1 11/06/2015 13:02:01 73.70, -12.98 89.69 11/06/2015 13:02:51 73.69, -12.89 89.70 3.02 50
2 11/08/2015 17:46:17 73.77, -83.90 90.41 11/08/2015 17:46:06 73.76, -83.82 90.41 2.65 11
3 11/08/2015 18:35:47 -73.65, 83.47 89.72 11/08/2015 18:37:00 -73.65, 83.72 89.69 7.96 73
4 11/10/2015 22:30:33 73.83,-154.84 91.10 11/10/2015 22:29:21 73.84,-154.77 91.10 1.96 72
5 11/10/2015 23:20:02 -73.76, 12.65 88.97 11/10/2015 23:20:16 -73.75, 12.71 88.98 2.34 14
6 11/13/2015 04:04:18 -73.82, -58.30 88.31 11/13/2015 04:03:31 -73.81, -58.20 88.33 3.35 47
7 11/13/2015 04:53:45 73.73, 109.16 91.61 11/13/2015 04:54:35 73.75, 109.16 91.64 2.24 50
8 11/15/2015 09:38:01 73.78, 38.19 92.23 11/15/2015 09:37:49 73.79, 38.30 92.25 3.82 12
9 11/15/2015 10:27:31 -73.66,-154.43 87.89 11/15/2015 10:28:44 -73.66,-154.10 87.87 10.40 73
10 11/17/2015 14:22:16 73.87, -32.68 92.87 11/17/2015 14:21:04 73.89, -32.71 92.89 2.34 72
11 11/17/2015 15:11:45 -73.81, 134.81 87.19 11/17/2015 15:12:01 -73.82, 134.73 87.18 2.99 16
12 11/19/2015 19:56:01 -73.84, 63.81 86.64 11/19/2015 19:55:15 -73.84, 63.90 86.64 2.78 46




NCC Satellite Simultaneous Nadir Overpasses (SNOs) Prediction Service
